Regional Weather Roundup
Issued by NWS

Current Version | Previous Version | Text Only | Print | Product List | Glossary On
Versions: 1 2 3 4 5 6 7 8 9 10 11 12 13 14 15 16 17 18 19 20 21 22 23 24 25 26 27 28 29 30 31 32 33 34 35 36 37 38 39 40 41 42 43 44 45 46 47 48 49 50
000
ASUS45 KPSR 221410
RWRAZ

ARIZONA HOURLY REGIONAL WEATHER ROUNDUP
NATIONAL WEATHER SERVICE PHOENIX AZ
700 AM MST THU JUN 22 2017

NOTE: FAIR INDICATES FEW OR NO CLOUDS BELOW 12,000 FEET WITH NO
SIGNIFICANT WEATHER AND/OR OBSTRUCTIONS TO VISIBILITY.

AZZ001>003-036-221500-
NORTHWEST ARIZONA

CITY           SKY/WX    TMP DP  RH WIND       PRES   REMARKS
BULLHEAD CITY  SUNNY     90  30  12 CALM      29.65R
KINGMAN        SUNNY     85  31  14 NE3       29.88R
$$

AZZ004>008-015-016-018-221500-
NORTH CENTRAL ARIZONA

CITY           SKY/WX    TMP DP  RH WIND       PRES   REMARKS
GRAND CANYON   SUNNY     62  34  35 E5        30.16R
PRESCOTT       SUNNY     76  37  24 CALM      30.03R
FLAGSTAFF      SUNNY     74  28  18 W5        30.20R
PAYSON         SUNNY     77  32  19 CALM      30.08R
PAGE           SUNNY     85  31  14 CALM      29.92R
$$

AZZ009>014-017-221500-
NORTHEAST ARIZONA

CITY           SKY/WX    TMP DP  RH WIND       PRES   REMARKS
WINSLOW        MOSUNNY   83  28  13 SW9       30.01R
SAINT JOHNS    MOSUNNY   80  37  21 CALM      30.06R
WINDOW ROCK    MOSUNNY   65  35  33 NE7       30.14R
SHOW LOW       MOSUNNY   73  36  25 S7        30.16R
$$

AZZ540-542>544-546-548-221500-
GREATER PHOENIX AREA

CITY           SKY/WX    TMP DP  RH WIND       PRES   REMARKS
PHOENIX        MOSUNNY   92  49  22 CALM      29.73R
BUCKEYE        SUNNY     88  50  27 N5        29.75R
GLENDALE       MOSUNNY   93  52  24 SW6       29.74R
LUKE AFB       SUNNY     89  54  30 E5        29.73R
DEER VALLEY    SUNNY     90  53  28 S3        29.76R
SCOTTSDALE     SUNNY     92  51  24 CALM      29.78R
MESA-FALCON    MOSUNNY   91  52  25 E9        29.77R
MESA-GATEWAY   MOSUNNY   84  52  32 E6        29.76R
CHANDLER       SUNNY     88  54  31 VRB5      29.74R
$$

AZZ539-553-221500-
SOUTHWEST MARICOPA COUNTY AND PINAL COUNTY

CITY           SKY/WX    TMP DP  RH WIND       PRES   REMARKS
CASA GRANDE      N/A    N/A N/A N/A MISG        N/A
GILA BEND      SUNNY     87  53  31 N3        29.71R
$$

AZZ503-504-507>509-221500-
SOUTHEAST ARIZONA

CITY           SKY/WX    TMP DP  RH WIND       PRES   REMARKS
TUCSON         SUNNY     89  57  33 SE8       29.88R
DAVIS-MONTHAN  SUNNY     87  51  29 E6        29.87R
RYAN FIELD     SUNNY     88  54  31 E3        29.86R
NOGALES        SUNNY     79  57  46 S3        29.98R
SIERRA VISTA   MOSUNNY   81  53  38 NE3       30.03R
DOUGLAS        MOSUNNY   80  49  33 SE7       29.99R
SAFFORD        SUNNY     83  48  29 W6        29.86R
$$

AZZ532-221500-
SOUTHWEST ARIZONA

CITY           SKY/WX    TMP DP  RH WIND       PRES   REMARKS
YUMA           SUNNY     85  69  58 SE14      29.68R
$$

CAZ041-043-047-048-061-525>527-560>570-221500-
SOUTHERN CALIFORNIA

CITY           SKY/WX    TMP DP  RH WIND       PRES   REMARKS
DOWNTOWN L.A.  NOT AVBL
L.A. AIRPORT   CLOUDY    65  62  90 SE6       29.78R FOG
SAN DIEGO      CLOUDY    62  61  96 S7        29.82R FOG
BURBANK        SUNNY     62  59  90 S7        29.78R
ONTARIO        SUNNY     65  60  84 SW3       29.78R HAZE
RIVERSIDE      SUNNY     63  61  93 W5        29.78R FOG
PALM SPRINGS   SUNNY     86  60  41 VRB3      29.71R
EL CENTRO NAS  SUNNY     81  71  71 CALM      29.66R
IMPERIAL       SUNNY     82  72  71 SE12      29.64R
BLYTHE         SUNNY     88  58  36 S6        29.68R
NEEDLES        SUNNY     97  27   8 CALM      29.66R
$$

NVZ020-UTZ003-221500-
SOUTHERN NEVADA-UTAH

CITY           SKY/WX    TMP DP  RH WIND       PRES   REMARKS
LAS VEGAS      SUNNY     91  34  13 S3        29.74R
SALT LAKE CITY MOSUNNY   70  47  43 NW7       30.02R
$$

NMZ009-TXZ055-221500-
NEW MEXICO-WEST TEXAS

CITY           SKY/WX    TMP DP  RH WIND       PRES   REMARKS
ALBUQUERQUE    MOSUNNY   77  47  34 CALM      30.04R
EL PASO        SUNNY     83  56  39 CALM      29.91R
$$


........................KEY........................
SKY/WX - SKY CONDITION/WEATHER
TMP    - TEMPERATURE IN FAHRENHEIT
DP     - DEW POINT IN FAHRENHEIT
RH     - RELATIVE HUMIDITY IN PERCENT
WIND   - DIRECTION AND SPEED IN MILES PER HOUR (MPH)
VRB    - VARIABLE WIND DIRECTION
PRES   - MEAN SEA LEVEL PRESSURE IN INCHES OF MERCURY
         F - FALLING PRESSURE   R - RISING PRESSURE
         S - STEADY PRESSURE
VSB    - VISIBILITY IN MILES
HX     - HEAT INDEX IN FAHRENHEIT
WCI    - WIND CHILL INDEX IN FAHRENHEIT
TC     - TEMPERATURE IN CELSIUS WHICH IS ALSO KNOWN AS
         TEMPERATURE IN CENTIGRADE
AFB    - AIR FORCE BASE
         LUKE AFB IS LUKE AIR FORCE BASE
         DAVIS-MONTHAN IS DAVIS-MONTHAN AIR FORCE BASE
NAS    - NAVAL AIR STATION
         EL CENTRO NAS IS EL CENTRO NAVAL AIR STATION
N/A    - NOT AVAILABLE





USA.gov is the U.S. government's official web portal to all federal, state and local government web resources and services.